Overview Statistics Trail Chart Weather Telemetry Raw packets
 

This is the latest recevied weather packets stored in our database for station/object NR0A-4. If no packets are shown the sender has not sent any weather packets the latest 10 day(s).

<< 55 56 57 58 59 60 61 >>
Time Temp. Humidity Pressure Rain* Wind** Luminosity Snow
1788285004 30.56° C 65% 1013.4 hPa 0 mm - 374 W/m² -
1788284705 30.56° C 64% 1013.4 hPa 0 mm - 383 W/m² -
1788284404 30.56° C 64% 1013.4 hPa 0 mm - 362 W/m² -
1788284104 30.56° C 64% 1013.5 hPa 0 mm - 454 W/m² -
1788283804 31.11° C 64% 1013.4 hPa 0 mm - 469 W/m² -
1788283504 31.11° C 64% 1013.3 hPa 0 mm - 471 W/m² -
1788283204 31.11° C 64% 1013.4 hPa 0 mm - 543 W/m² -
1788282904 31.11° C 62% 1013.4 hPa 0 mm - 689 W/m² -
1788282605 31.11° C 66% 1013.5 hPa 0 mm - 503 W/m² -
1788282305 31.11° C 62% 1013.5 hPa 0 mm - 770 W/m² -
1788282004 31.11° C 65% 1013.4 hPa 0 mm - 701 W/m² -
1788281721 30.56° C 66% 1013.4 hPa 0 mm - 726 W/m² -
1788281405 30.56° C 67% 1013.5 hPa 0 mm - 691 W/m² -
1788281105 30.56° C 68% 1013.5 hPa 0 mm - 682 W/m² -
1788280804 30.56° C 69% 1013.5 hPa 0 mm - 652 W/m² -
1788280505 30.56° C 69% 1013.6 hPa 0 mm - 436 W/m² -
1788280204 30.56° C 69% 1013.6 hPa 0 mm - 506 W/m² -
1788279905 30.56° C 68% 1013.5 hPa 0 mm - 506 W/m² -
1788279604 30° C 69% 1013.6 hPa 0 mm - 267 W/m² -
1788279304 30° C 68% 1013.8 hPa 0 mm - 631 W/m² -
1788279004 30° C 68% 1013.8 hPa 0 mm - 622 W/m² -
1788278704 30.56° C 70% 1013.9 hPa 0 mm - 592 W/m² -
1788278405 30° C 71% 1013.8 hPa 0 mm - 596 W/m² -
1788278105 30° C 71% 1013.9 hPa 0 mm - 480 W/m² -
1788277804 29.44° C 74% 1014 hPa 0 mm - 712 W/m² -

* Rain latest hour (hover to see other rain measurements)
** Current wind speed in m/s (hover to see current wind gust speed)